Time,TemperatureF,DewpointF,PressureIn,WindDirection,WindDirectionDegrees,WindSpeedMPH,WindSpeedGustMPH,Humidity,HourlyPrecipIn,Conditions,Clouds,dailyrainin,SolarRadiationWatts/m^2,SoftwareType,DateUTC
2013-05-01 00:02:00,53.0,53.0,-100.00,SSE,164,0.0,5.0,100,0.02,,,0.05,0.000000,,2013-05-01 10:02:00,
2013-05-01 00:12:00,53.0,53.0,-100.00,SSE,164,0.0,5.0,100,0.02,,,0.05,0.000000,,2013-05-01 10:12:00,
2013-05-01 00:22:00,53.0,53.0,-100.00,SSE,164,0.0,5.0,100,0.02,,,0.05,0.000000,,2013-05-01 10:22:00,
2013-05-01 00:32:00,53.0,53.0,-100.00,SSE,164,0.0,5.0,100,0.02,,,0.05,0.000000,,2013-05-01 10:32:00,
2013-05-01 00:53:00,53.0,53.0,-100.00,SSE,156,1.0,6.0,100,0.02,,,0.07,0.000000,,2013-05-01 10:53:00,
2013-05-01 01:02:00,53.0,53.0,-100.00,SSE,156,1.0,6.0,100,0.02,,,0.07,0.000000,,2013-05-01 11:02:00,
2013-05-01 01:11:00,53.0,53.0,-100.00,SSE,156,1.0,6.0,100,0.02,,,0.07,0.000000,,2013-05-01 11:11:00,
2013-05-01 01:22:00,53.0,53.0,-100.00,SSE,156,1.0,6.0,100,0.02,,,0.07,0.000000,,2013-05-01 11:22:00,
2013-05-01 01:32:00,53.0,53.0,-100.00,SSE,156,1.0,6.0,100,0.02,,,0.07,0.000000,,2013-05-01 11:32:00,
2013-05-01 01:52:00,52.0,52.0,-100.00,North,10,0.0,5.0,100,0.00,,,-99.99,0.000000,,2013-05-01 11:52:00,
2013-05-01 02:01:00,52.0,52.0,-100.00,North,10,0.0,5.0,100,0.00,,,-99.99,0.000000,,2013-05-01 12:01:00,
2013-05-01 02:11:00,52.0,52.0,-100.00,North,10,0.0,5.0,100,0.00,,,-99.99,0.000000,,2013-05-01 12:11:00,
2013-05-01 02:21:00,52.0,52.0,-100.00,North,10,0.0,5.0,100,0.00,,,-99.99,0.000000,,2013-05-01 12:21:00,
2013-05-01 02:31:00,52.0,52.0,-100.00,North,10,0.0,5.0,100,0.00,,,-99.99,0.000000,,2013-05-01 12:31:00,
2013-05-01 02:52:00,50.0,50.0,-100.00,East,93,0.0,5.0,100,0.00,,,-99.99,0.000000,,2013-05-01 12:52:00,
2013-05-01 03:01:00,50.0,50.0,-100.00,East,93,0.0,5.0,100,0.00,,,-99.99,0.000000,,2013-05-01 13:01:00,
2013-05-01 03:11:00,50.0,50.0,-100.00,East,93,0.0,5.0,100,0.00,,,-99.99,0.000000,,2013-05-01 13:11:00,
2013-05-01 03:21:00,50.0,50.0,-100.00,East,93,0.0,5.0,100,0.00,,,-99.99,0.000000,,2013-05-01 13:21:00,
2013-05-01 03:31:00,50.0,50.0,-100.00,East,93,0.0,5.0,100,0.00,,,-99.99,0.000000,,2013-05-01 13:31:00,
2013-05-01 03:52:00,48.0,48.0,-100.00,ENE,71,0.0,5.0,100,0.00,,,0.07,0.000000,,2013-05-01 13:52:00,
2013-05-01 04:02:00,48.0,48.0,-100.00,ENE,71,0.0,5.0,100,0.00,,,0.07,0.000000,,2013-05-01 14:02:00,
2013-05-01 04:11:00,48.0,48.0,-100.00,ENE,71,0.0,5.0,100,0.00,,,0.07,0.000000,,2013-05-01 14:11:00,
2013-05-01 04:21:00,48.0,48.0,-100.00,ENE,71,0.0,5.0,100,0.00,,,0.07,0.000000,,2013-05-01 14:21:00,
2013-05-01 04:31:00,48.0,48.0,-100.00,ENE,71,0.0,5.0,100,0.00,,,0.07,0.000000,,2013-05-01 14:31:00,
2013-05-01 04:52:00,46.0,46.0,-100.00,NE,42,4.0,5.0,99,0.00,,,0.07,0.000000,,2013-05-01 14:52:00,
2013-05-01 05:01:00,46.0,46.0,-100.00,NE,42,4.0,5.0,99,0.00,,,0.07,0.000000,,2013-05-01 15:01:00,
2013-05-01 05:11:00,46.0,46.0,-100.00,NE,42,4.0,5.0,99,0.00,,,0.07,0.000000,,2013-05-01 15:11:00,
2013-05-01 05:21:00,46.0,46.0,-100.00,NE,42,4.0,5.0,99,0.00,,,0.07,0.000000,,2013-05-01 15:21:00,
2013-05-01 05:32:00,46.0,46.0,-100.00,NE,42,4.0,5.0,99,0.00,,,0.07,0.000000,,2013-05-01 15:32:00,
2013-05-01 05:53:00,47.0,47.0,-100.00,NE,35,3.0,6.0,99,0.00,,,0.07,0.000000,,2013-05-01 15:53:00,
2013-05-01 06:03:00,47.0,47.0,-100.00,NE,35,3.0,6.0,99,0.00,,,0.07,0.000000,,2013-05-01 16:03:00,
2013-05-01 06:12:00,47.0,47.0,-100.00,NE,35,3.0,6.0,99,0.00,,,0.07,0.000000,,2013-05-01 16:12:00,
2013-05-01 06:22:00,47.0,47.0,-100.00,NE,35,3.0,6.0,99,0.00,,,0.07,0.000000,,2013-05-01 16:22:00,
2013-05-01 06:31:00,47.0,47.0,-100.00,NE,35,3.0,6.0,99,0.00,,,0.07,0.000000,,2013-05-01 16:31:00,
2013-05-01 06:53:00,47.0,46.0,-100.00,ENE,57,1.0,8.0,96,0.00,,,0.07,8.000000,,2013-05-01 16:53:00,
2013-05-01 07:02:00,47.0,46.0,-100.00,ENE,57,1.0,8.0,96,0.00,,,0.07,8.000000,,2013-05-01 17:02:00,
2013-05-01 07:12:00,47.0,46.0,-100.00,ENE,57,1.0,8.0,96,0.00,,,0.07,8.000000,,2013-05-01 17:12:00,
2013-05-01 07:21:00,47.0,46.0,-100.00,ENE,57,1.0,8.0,96,0.00,,,0.07,8.000000,,2013-05-01 17:21:00,
2013-05-01 07:31:00,47.0,46.0,-100.00,ENE,57,1.0,8.0,96,0.00,,,0.07,8.000000,,2013-05-01 17:31:00,
2013-05-01 07:52:00,57.0,51.0,-100.00,SSW,212,0.0,6.0,79,0.00,,,0.07,287.000000,,2013-05-01 17:52:00,
2013-05-01 08:01:00,57.0,51.0,-100.00,SSW,212,0.0,6.0,79,0.00,,,0.07,287.000000,,2013-05-01 18:01:00,
2013-05-01 08:11:00,57.0,51.0,-100.00,SSW,212,0.0,6.0,79,0.00,,,0.07,287.000000,,2013-05-01 18:11:00,
2013-05-01 08:22:00,57.0,51.0,-100.00,SSW,212,0.0,6.0,79,0.00,,,0.07,287.000000,,2013-05-01 18:22:00,
2013-05-01 08:32:00,57.0,51.0,-100.00,SSW,212,0.0,6.0,79,0.00,,,0.07,287.000000,,2013-05-01 18:32:00,
2013-05-01 08:52:00,60.0,52.0,-100.00,WSW,250,4.0,6.0,75,0.00,,,0.07,596.000000,,2013-05-01 18:52:00,
2013-05-01 09:01:00,60.0,52.0,-100.00,WSW,250,4.0,6.0,75,0.00,,,0.07,596.000000,,2013-05-01 19:01:00,
2013-05-01 09:11:00,60.0,52.0,-100.00,WSW,250,4.0,6.0,75,0.00,,,0.07,596.000000,,2013-05-01 19:11:00,
2013-05-01 09:22:00,60.0,52.0,-100.00,WSW,250,4.0,6.0,75,0.00,,,0.07,596.000000,,2013-05-01 19:22:00,
2013-05-01 09:31:00,60.0,52.0,-100.00,WSW,250,4.0,6.0,75,0.00,,,0.07,596.000000,,2013-05-01 19:31:00,
2013-05-01 09:52:00,60.0,52.0,-100.00,West,271,3.0,6.0,74,0.00,,,0.07,601.000000,,2013-05-01 19:52:00,
2013-05-01 10:01:00,60.0,52.0,-100.00,West,271,3.0,6.0,74,0.00,,,0.07,601.000000,,2013-05-01 20:01:00,
2013-05-01 10:11:00,60.0,52.0,-100.00,West,271,3.0,6.0,74,0.00,,,0.07,601.000000,,2013-05-01 20:11:00,
2013-05-01 10:21:00,60.0,52.0,-100.00,West,271,3.0,6.0,74,0.00,,,0.07,601.000000,,2013-05-01 20:21:00,
2013-05-01 10:31:00,60.0,52.0,-100.00,West,271,3.0,6.0,74,0.00,,,0.07,601.000000,,2013-05-01 20:31:00,
2013-05-01 10:52:00,62.0,56.0,-100.00,WSW,247,5.0,7.0,80,0.00,,,0.07,531.000000,,2013-05-01 20:52:00,
2013-05-01 11:01:00,62.0,56.0,-100.00,WSW,247,5.0,7.0,80,0.00,,,0.07,531.000000,,2013-05-01 21:01:00,
2013-05-01 11:11:00,62.0,56.0,-100.00,WSW,247,5.0,7.0,80,0.00,,,0.07,531.000000,,2013-05-01 21:11:00,
2013-05-01 11:21:00,62.0,56.0,-100.00,WSW,247,5.0,7.0,80,0.00,,,0.07,531.000000,,2013-05-01 21:21:00,
2013-05-01 11:32:00,62.0,56.0,-100.00,WSW,247,5.0,7.0,80,0.00,,,0.07,531.000000,,2013-05-01 21:32:00,
2013-05-01 11:53:00,59.0,54.0,-100.00,WNW,286,4.0,10.0,85,0.00,,,0.07,440.000000,,2013-05-01 21:53:00,
2013-05-01 12:03:00,59.0,54.0,-100.00,WNW,286,4.0,10.0,85,0.00,,,0.07,440.000000,,2013-05-01 22:03:00,
2013-05-01 12:12:00,59.0,54.0,-100.00,WNW,286,4.0,10.0,85,0.00,,,0.07,440.000000,,2013-05-01 22:12:00,
2013-05-01 12:22:00,59.0,54.0,-100.00,WNW,286,4.0,10.0,85,0.00,,,0.07,440.000000,,2013-05-01 22:22:00,
2013-05-01 12:32:00,59.0,54.0,-100.00,WNW,286,4.0,10.0,85,0.00,,,0.07,440.000000,,2013-05-01 22:32:00,
2013-05-01 12:53:00,59.0,54.0,-100.00,West,277,4.0,9.0,84,0.00,,,0.07,438.000000,,2013-05-01 22:53:00,
2013-05-01 13:02:00,59.0,54.0,-100.00,West,277,4.0,9.0,84,0.00,,,0.07,438.000000,,2013-05-01 23:02:00,
2013-05-01 13:11:00,59.0,54.0,-100.00,West,277,4.0,9.0,84,0.00,,,0.07,438.000000,,2013-05-01 23:11:00,
2013-05-01 13:21:00,59.0,54.0,-100.00,West,277,4.0,9.0,84,0.00,,,0.07,438.000000,,2013-05-01 23:21:00,
2013-05-01 13:32:00,59.0,54.0,-100.00,West,277,4.0,9.0,84,0.00,,,0.07,438.000000,,2013-05-01 23:32:00,
2013-05-01 13:52:00,60.0,56.0,-100.00,West,266,4.0,8.0,87,0.00,,,-99.99,224.000000,,2013-05-01 23:52:00,
2013-05-01 14:01:00,60.0,56.0,-100.00,West,266,4.0,8.0,87,0.00,,,-99.99,224.000000,,2013-05-02 00:01:00,
2013-05-01 14:11:00,60.0,56.0,-100.00,West,266,4.0,8.0,87,0.00,,,-99.99,224.000000,,2013-05-02 00:11:00,
2013-05-01 14:21:00,60.0,56.0,-100.00,West,266,4.0,8.0,87,0.00,,,-99.99,224.000000,,2013-05-02 00:21:00,
2013-05-01 14:31:00,60.0,56.0,-100.00,West,266,4.0,8.0,87,0.00,,,-99.99,224.000000,,2013-05-02 00:31:00,
2013-05-01 14:52:00,58.0,57.0,-100.00,NW,308,1.0,8.0,96,0.00,,,0.07,211.000000,,2013-05-02 00:52:00,
2013-05-01 15:01:00,58.0,57.0,-100.00,NW,308,1.0,8.0,96,0.00,,,0.07,211.000000,,2013-05-02 01:01:00,
2013-05-01 15:11:00,58.0,57.0,-100.00,NW,308,1.0,8.0,96,0.00,,,0.07,211.000000,,2013-05-02 01:11:00,
2013-05-01 15:21:00,58.0,57.0,-100.00,NW,308,1.0,8.0,96,0.00,,,0.07,211.000000,,2013-05-02 01:21:00,
2013-05-01 15:32:00,58.0,57.0,-100.00,NW,308,1.0,8.0,96,0.00,,,0.07,211.000000,,2013-05-02 01:32:00,
2013-05-01 15:52:00,56.0,56.0,-100.00,WSW,248,1.0,6.0,100,0.00,,,0.07,126.000000,,2013-05-02 01:52:00,
2013-05-01 16:01:00,56.0,56.0,-100.00,WSW,248,1.0,6.0,100,0.00,,,0.07,126.000000,,2013-05-02 02:01:00,
2013-05-01 16:11:00,56.0,56.0,-100.00,WSW,248,1.0,6.0,100,0.00,,,0.07,126.000000,,2013-05-02 02:11:00,
2013-05-01 16:21:00,56.0,56.0,-100.00,WSW,248,1.0,6.0,100,0.00,,,0.07,126.000000,,2013-05-02 02:21:00,
2013-05-01 16:31:00,56.0,56.0,-100.00,WSW,248,1.0,6.0,100,0.00,,,0.07,126.000000,,2013-05-02 02:31:00,
2013-05-01 17:01:00,57.0,57.0,-100.00,WNW,288,2.0,6.0,100,0.00,,,0.07,161.000000,,2013-05-02 03:01:00,
2013-05-01 17:11:00,57.0,57.0,-100.00,WNW,288,2.0,6.0,100,0.00,,,0.07,161.000000,,2013-05-02 03:11:00,
2013-05-01 17:22:00,57.0,57.0,-100.00,WNW,288,2.0,6.0,100,0.00,,,0.07,161.000000,,2013-05-02 03:22:00,
2013-05-01 17:32:00,57.0,57.0,-100.00,WNW,288,2.0,6.0,100,0.00,,,0.07,161.000000,,2013-05-02 03:32:00,
2013-05-01 17:33:00,56.0,56.0,-100.00,WNW,286,1.0,8.0,100,0.00,,,0.07,66.000000,,2013-05-02 03:33:00,
2013-05-01 17:53:00,56.0,56.0,-100.00,WNW,286,1.0,8.0,100,0.00,,,0.07,66.000000,,2013-05-02 03:53:00,
2013-05-01 18:03:00,56.0,56.0,-100.00,WNW,286,1.0,8.0,100,0.00,,,0.07,66.000000,,2013-05-02 04:03:00,
2013-05-01 18:12:00,56.0,56.0,-100.00,WNW,286,1.0,8.0,100,0.00,,,0.07,66.000000,,2013-05-02 04:12:00,
2013-05-01 18:22:00,56.0,56.0,-100.00,WNW,286,1.0,8.0,100,0.00,,,0.07,66.000000,,2013-05-02 04:22:00,
2013-05-01 18:52:00,55.0,55.0,-100.00,SSW,193,0.0,6.0,100,0.00,,,0.07,21.000000,,2013-05-02 04:52:00,
2013-05-01 19:02:00,55.0,55.0,-100.00,SSW,193,0.0,6.0,100,0.00,,,0.07,21.000000,,2013-05-02 05:02:00,
2013-05-01 19:12:00,55.0,55.0,-100.00,SSW,193,0.0,6.0,100,0.00,,,0.07,21.000000,,2013-05-02 05:12:00,
2013-05-01 19:22:00,55.0,55.0,-100.00,SSW,193,0.0,6.0,100,0.00,,,0.07,21.000000,,2013-05-02 05:22:00,
2013-05-01 19:32:00,55.0,55.0,-100.00,SSW,193,0.0,6.0,100,0.00,,,0.07,21.000000,,2013-05-02 05:32:00,
2013-05-01 19:52:00,55.0,55.0,-100.00,SE,137,0.0,3.0,100,0.00,,,0.06,4.000000,,2013-05-02 05:52:00,
2013-05-01 20:01:00,55.0,55.0,-100.00,SE,137,0.0,3.0,100,0.00,,,0.06,4.000000,,2013-05-02 06:01:00,
2013-05-01 20:12:00,55.0,55.0,-100.00,SE,137,0.0,3.0,100,0.00,,,0.06,4.000000,,2013-05-02 06:12:00,
2013-05-01 20:21:00,55.0,55.0,-100.00,SE,137,0.0,3.0,100,0.00,,,0.06,4.000000,,2013-05-02 06:21:00,
2013-05-01 20:31:00,55.0,55.0,-100.00,SE,137,0.0,3.0,100,0.00,,,0.06,4.000000,,2013-05-02 06:31:00,
2013-05-01 20:52:00,55.0,55.0,-100.00,NW,320,0.0,4.0,100,0.00,,,0.05,0.000000,,2013-05-02 06:52:00,
2013-05-01 21:01:00,55.0,55.0,-100.00,NW,320,0.0,4.0,100,0.00,,,0.05,0.000000,,2013-05-02 07:01:00,
2013-05-01 21:11:00,55.0,55.0,-100.00,NW,320,0.0,4.0,100,0.00,,,0.05,0.000000,,2013-05-02 07:11:00,
2013-05-01 21:21:00,55.0,55.0,-100.00,NW,320,0.0,4.0,100,0.00,,,0.05,0.000000,,2013-05-02 07:21:00,
2013-05-01 21:31:00,55.0,55.0,-100.00,NW,320,0.0,4.0,100,0.00,,,0.05,0.000000,,2013-05-02 07:31:00,
2013-05-01 21:52:00,53.0,53.0,-100.00,North,354,0.0,4.0,100,0.01,,,0.06,0.000000,,2013-05-02 07:52:00,
2013-05-01 22:02:00,53.0,53.0,-100.00,North,354,0.0,4.0,100,0.01,,,0.06,0.000000,,2013-05-02 08:02:00,
2013-05-01 22:11:00,53.0,53.0,-100.00,North,354,0.0,4.0,100,0.01,,,0.06,0.000000,,2013-05-02 08:11:00,
2013-05-01 22:21:00,53.0,53.0,-100.00,North,354,0.0,4.0,100,0.01,,,0.06,0.000000,,2013-05-02 08:21:00,
2013-05-01 22:32:00,53.0,53.0,-100.00,North,354,0.0,4.0,100,0.01,,,0.06,0.000000,,2013-05-02 08:32:00,
2013-05-01 22:52:00,55.0,55.0,-100.00,NW,321,0.0,4.0,100,0.00,,,0.05,0.000000,,2013-05-02 08:52:00,
2013-05-01 23:02:00,55.0,55.0,-100.00,NW,321,0.0,4.0,100,0.00,,,0.05,0.000000,,2013-05-02 09:02:00,
2013-05-01 23:11:00,55.0,55.0,-100.00,NW,321,0.0,4.0,100,0.00,,,0.05,0.000000,,2013-05-02 09:11:00,
2013-05-01 23:21:00,55.0,55.0,-100.00,NW,321,0.0,4.0,100,0.00,,,0.05,0.000000,,2013-05-02 09:21:00,
2013-05-01 23:32:00,55.0,55.0,-100.00,NW,321,0.0,4.0,100,0.00,,,0.05,0.000000,,2013-05-02 09:32:00,
2013-05-01 23:52:00,52.0,52.0,-100.00,NNE,30,0.0,5.0,100,0.00,,,-99.99,0.000000,,2013-05-02 09:52:00,